When you browse on this site, cookies collect data to enhance your experience and personalize the content and advertising you see.
Visit our Privacy Policy to learn more. By continuing to use the site, you agree to this use of cookies and data.
  • In Sweden
  • List of Countries
  • For 7 days
  • Water Temperature
  • Weather Map
  • Weather Widgets
  • user-avatar
    Login

    Hourly Weather Carmen

    Today, 26 February, Wednesday

    Time Temperature Precipitation Wind Pressure Humidity
    00:00 +27°C° 0 mm 3 mps 758 mmHg 70%
    01:00 +27°C° 0 mm 3 mps 757 mmHg 71%
    02:00 +26°C° 0 mm 3 mps 757 mmHg 73%
    03:00 +26°C° 0 mm 2 mps 757 mmHg 74%
    04:00 +26°C° 0 mm 2 mps 757 mmHg 76%
    05:00 +25°C° 0 mm 2 mps 758 mmHg 78%
    06:00 +25°C° 0 mm 1 mps 758 mmHg 79%
    07:00 +26°C° 0 mm 1 mps 759 mmHg 75%
    08:00 +28°C° 0 mm 1 mps 760 mmHg 71%
    09:00 +29°C° 0 mm 1 mps 760 mmHg 67%
    10:00 +30°C° 0 mm 2 mps 760 mmHg 64%
    11:00 +31°C° 0 mm 2 mps 760 mmHg 62%
    12:00 +31°C° 0 mm 2 mps 760 mmHg 59%
    13:00 +31°C° 0 mm 3 mps 760 mmHg 60%
    14:00 +32°C° 0 mm 4 mps 759 mmHg 60%
    15:00 +32°C° 0 mm 5 mps 758 mmHg 60%
    16:00 +29°C° 0.7 mm 8 mps 759 mmHg 70%
    17:00 +27°C° 0.7 mm 11 mps 760 mmHg 80%
    18:00 +24°C° 0.7 mm 14 mps 761 mmHg 89%
    19:00 +24°C° 0.3 mm 14 mps 762 mmHg 89%
    20:00 +23°C° 0.3 mm 14 mps 764 mmHg 88%
    21:00 +23°C° 0.3 mm 14 mps 765 mmHg 87%
    22:00 +22°C° 0.2 mm 14 mps 766 mmHg 86%
    23:00 +22°C° 0.2 mm 13 mps 766 mmHg 85%

    Tomorrow, 27 February, Thursday

    Time Temperature Precipitation Wind Pressure Humidity
    00:00 +20°C° 0.2 mm 13 mps 767 mmHg 84%
    01:00 +21°C° 0.4 mm 12 mps 767 mmHg 86%
    02:00 +21°C° 0.4 mm 11 mps 767 mmHg 87%
    03:00 +21°C° 0.4 mm 9 mps 767 mmHg 88%
    04:00 +19°C° 0.5 mm 9 mps 767 mmHg 89%
    05:00 +19°C° 0.5 mm 9 mps 767 mmHg 89%
    06:00 +20°C° 0.5 mm 8 mps 767 mmHg 89%
    07:00 +20°C° 0.3 mm 8 mps 768 mmHg 87%
    08:00 +21°C° 0.3 mm 8 mps 768 mmHg 85%
    09:00 +21°C° 0.3 mm 8 mps 769 mmHg 83%
    10:00 +21°C° 0.2 mm 7 mps 769 mmHg 83%
    11:00 +21°C° 0.2 mm 7 mps 769 mmHg 83%
    12:00 +21°C° 0.2 mm 7 mps 769 mmHg 84%
    13:00 +21°C° 0.1 mm 6 mps 768 mmHg 83%
    14:00 +21°C° 0.1 mm 6 mps 767 mmHg 82%
    15:00 +21°C° 0.1 mm 6 mps 767 mmHg 81%
    16:00 +21°C° 0 mm 6 mps 767 mmHg 80%
    17:00 +21°C° 0 mm 6 mps 767 mmHg 79%
    18:00 +21°C° 0 mm 6 mps 767 mmHg 78%
    19:00 +21°C° 0 mm 6 mps 767 mmHg 78%
    20:00 +21°C° 0 mm 6 mps 768 mmHg 77%
    21:00 +21°C° 0 mm 6 mps 768 mmHg 77%
    22:00 +21°C° 0 mm 6 mps 768 mmHg 78%
    23:00 +21°C° 0 mm 5 mps 768 mmHg 78%

    Day after tomorrow, 28 February, Friday

    Time Temperature Precipitation Wind Pressure Humidity
    00:00 +21°C° 0 mm 5 mps 768 mmHg 79%
    01:00 +21°C° 0.2 mm 5 mps 768 mmHg 81%
    02:00 +21°C° 0.2 mm 5 mps 767 mmHg 84%
    03:00 +21°C° 0.2 mm 5 mps 767 mmHg 86%
    04:00 +20°C° 0.4 mm 5 mps 767 mmHg 86%
    05:00 +20°C° 0.4 mm 5 mps 767 mmHg 86%
    06:00 +20°C° 0.4 mm 5 mps 767 mmHg 86%
    07:00 +20°C° 0.5 mm 5 mps 768 mmHg 85%
    08:00 +20°C° 0.5 mm 4 mps 768 mmHg 85%
    09:00 +19°C° 0.5 mm 4 mps 769 mmHg 84%
    10:00 +20°C° 0.3 mm 4 mps 768 mmHg 79%
    11:00 +21°C° 0.3 mm 3 mps 768 mmHg 75%
    12:00 +22°C° 0.3 mm 3 mps 768 mmHg 70%
    13:00 +22°C° 0.2 mm 4 mps 767 mmHg 70%
    14:00 +23°C° 0.2 mm 4 mps 767 mmHg 70%
    15:00 +23°C° 0.2 mm 5 mps 766 mmHg 70%
    16:00 +23°C° 0 mm 5 mps 766 mmHg 72%
    17:00 +23°C° 0 mm 6 mps 766 mmHg 74%
    18:00 +22°C° 0 mm 6 mps 767 mmHg 75%
    19:00 +22°C° 0.1 mm 6 mps 767 mmHg 77%
    20:00 +22°C° 0.1 mm 6 mps 768 mmHg 78%
    21:00 +22°C° 0.1 mm 7 mps 768 mmHg 79%
    22:00 +22°C° 0 mm 6 mps 768 mmHg 80%
    23:00 +22°C° 0 mm 6 mps 768 mmHg 81%

    29 February, Saturday

    Time Temperature Precipitation Wind Pressure Humidity
    00:00 +22°C° 0 mm 6 mps 768 mmHg 82%
    01:00 +21°C° 0.1 mm 6 mps 768 mmHg 82%
    02:00 +21°C° 0.1 mm 6 mps 767 mmHg 82%
    03:00 +20°C° 0.1 mm 5 mps 767 mmHg 82%
    04:00 +20°C° 0.2 mm 6 mps 767 mmHg 82%
    05:00 +20°C° 0.2 mm 6 mps 767 mmHg 81%
    06:00 +20°C° 0.2 mm 6 mps 768 mmHg 80%
    07:00 +20°C° 0.1 mm 6 mps 768 mmHg 78%
    08:00 +21°C° 0.1 mm 6 mps 769 mmHg 75%
    09:00 +21°C° 0.1 mm 5 mps 769 mmHg 73%
    10:00 +21°C° 0.1 mm 5 mps 769 mmHg 71%
    11:00 +22°C° 0.1 mm 5 mps 768 mmHg 68%
    12:00 +22°C° 0.1 mm 4 mps 768 mmHg 66%
    13:00 +23°C° 0 mm 4 mps 767 mmHg 65%
    14:00 +23°C° 0 mm 5 mps 766 mmHg 63%
    15:00 +25°C° 0 mm 5 mps 765 mmHg 62%
    16:00 +23°C° 0 mm 5 mps 765 mmHg 64%
    17:00 +23°C° 0 mm 5 mps 765 mmHg 67%
    18:00 +22°C° 0 mm 5 mps 765 mmHg 70%
    19:00 +22°C° 0 mm 5 mps 765 mmHg 69%
    20:00 +21°C° 0 mm 4 mps 766 mmHg 68%
    21:00 +21°C° 0 mm 4 mps 766 mmHg 67%
    22:00 +21°C° 0 mm 3 mps 766 mmHg 69%
    23:00 +21°C° 0 mm 3 mps 765 mmHg 71%

    1 March, Sunday

    Time Temperature Precipitation Wind Pressure Humidity
    00:00 +21°C° 0 mm 2 mps 765 mmHg 73%
    01:00 +21°C° 0 mm 3 mps 765 mmHg 75%
    02:00 +20°C° 0 mm 4 mps 764 mmHg 78%
    03:00 +20°C° 0 mm 5 mps 764 mmHg 81%
    04:00 +20°C° 0 mm 6 mps 764 mmHg 82%
    05:00 +19°C° 0 mm 6 mps 764 mmHg 82%
    06:00 +18°C° 0 mm 7 mps 764 mmHg 83%
    07:00 +20°C° 0 mm 7 mps 764 mmHg 79%
    08:00 +22°C° 0 mm 7 mps 765 mmHg 75%
    09:00 +23°C° 0 mm 7 mps 765 mmHg 71%
    10:00 +24°C° 0 mm 7 mps 764 mmHg 67%
    11:00 +27°C° 0 mm 6 mps 763 mmHg 64%
    12:00 +28°C° 0 mm 6 mps 763 mmHg 60%
    13:00 +28°C° 0 mm 5 mps 762 mmHg 59%
    14:00 +29°C° 0 mm 5 mps 760 mmHg 58%
    15:00 +30°C° 0 mm 4 mps 759 mmHg 57%
    16:00 +29°C° 0 mm 4 mps 759 mmHg 61%
    17:00 +28°C° 0 mm 4 mps 759 mmHg 66%
    18:00 +28°C° 0 mm 4 mps 759 mmHg 70%
    19:00 +27°C° 0 mm 4 mps 760 mmHg 72%
    20:00 +26°C° 0 mm 5 mps 760 mmHg 74%
    21:00 +26°C° 0 mm 5 mps 760 mmHg 76%
    22:00 +24°C° 0 mm 6 mps 760 mmHg 76%
    23:00 +24°C° 0 mm 7 mps 760 mmHg 75%

    2 March, Monday

    Time Temperature Precipitation Wind Pressure Humidity
    00:00 +23°C° 0 mm 8 mps 760 mmHg 75%
    01:00 +23°C° 0 mm 8 mps 760 mmHg 77%
    02:00 +23°C° 0 mm 8 mps 759 mmHg 79%
    03:00 +22°C° 0 mm 9 mps 759 mmHg 81%
    04:00 +22°C° 0 mm 9 mps 759 mmHg 82%
    05:00 +22°C° 0 mm 9 mps 759 mmHg 84%
    06:00 +22°C° 0 mm 9 mps 759 mmHg 85%
    07:00 +23°C° 0 mm 8 mps 760 mmHg 82%
    08:00 +24°C° 0 mm 8 mps 760 mmHg 78%
    09:00 +26°C° 0 mm 8 mps 760 mmHg 75%
    10:00 +27°C° 0 mm 8 mps 760 mmHg 70%
    11:00 +29°C° 0 mm 7 mps 759 mmHg 66%
    12:00 +30°C° 0 mm 7 mps 758 mmHg 62%
    13:00 +32°C° 0 mm 6 mps 757 mmHg 60%
    14:00 +32°C° 0 mm 6 mps 756 mmHg 58%
    15:00 +33°C° 0 mm 5 mps 755 mmHg 56%
    16:00 +32°C° 0 mm 4 mps 755 mmHg 60%
    17:00 +30°C° 0 mm 3 mps 755 mmHg 63%
    18:00 +29°C° 0 mm 3 mps 755 mmHg 67%
    19:00 +29°C° 0 mm 3 mps 756 mmHg 70%
    20:00 +28°C° 0 mm 3 mps 756 mmHg 73%
    21:00 +27°C° 0 mm 3 mps 757 mmHg 76%
    22:00 +27°C° 0 mm 5 mps 757 mmHg 76%
    23:00 +27°C° 0 mm 7 mps 757 mmHg 75%
    Show more